Regional Weather Roundup
Issued by NWS Charleston, SC

Current Version | Previous Version | Graphics & Text | Print | Product List | Glossary On
Versions: 1 2 3 4 5 6 7 8 9 10 11 12 13 14 15 16 17 18 19 20 21 22 23 24 25 26 27 28 29 30 31 32 33 34 35 36 37 38 39 40 41 42 43 44 45 46 47 48 49 50
000
ASUS42 KCHS 292028
RWRCHS

REGIONAL WEATHER ROUNDUP
NATIONAL WEATHER SERVICE CHARLESTON SC
400 PM EDT FRI APR 29 2016

NOTE: "FAIR" INDICATES FEW OR NO CLOUDS BELOW 12,000 FEET WITH NO
SIGNIFICANT WEATHER AND/OR OBSTRUCTIONS TO VISIBILITY.

NOT ALL STATIONS ARE QUALITY CONTROLLED. USE DATA WITH CAUTION...
ESPECIALLY DEWPOINT OBSERVATIONS.

SCZ027-030-031-034>040-042>050-292100-
...SOUTHEAST SOUTH CAROLINA...

CITY           SKY/WX    TMP DP  RH WIND       PRES   REMARKS
N CHARLESTON   MOSUNNY   86  59  39 SE13      29.94S
WATERFRONT PRK   N/A     77  68  73 SE8       29.92F
MOUNT PLEASANT FAIR      82  64  54 E7        29.95R
JOHNS ISLAND   FAIR      82  64  54 E12       29.95R
PINOPOLIS        N/A     86  68  54 VRB3      29.86S
MONCKS CORNER  FAIR      84  52  32 NW6       29.93S
SUMMERVILLE    FAIR      90  61  37 NW7       29.93F
BEAUFORT MCAS  MOSUNNY   90  61  37 SE3       29.93F HX  90
BEAUFORT ARPT  FAIR      86  55  35 SE7       29.93S
HILTON HEAD IS SUNNY     82  59  44 SE9       29.95F
WALTERBORO     PTCLDY    91  52  25 W3        29.93S
ALLENDALE      FAIR      90  55  31 CALM      29.91F

...SOUTHERN MIDLANDS AND PEE DEE...

CITY           SKY/WX    TMP DP  RH WIND       PRES   REMARKS
GEORGETOWN     FAIR      79  66  65 SE14      29.95F
KINGSTREE      FAIR      86  57  37 S5        29.94S
ORANGEBURG     SUNNY     89  54  30 VRB5      29.93F
BARNWELL       FAIR      91  57  31 CALM      29.93F HX  90
AIKEN          FAIR      90  48  24 CALM      29.96F
MANNING        NOT AVBL
COLUMBIA       MOSUNNY   89  50  26 CALM      29.92F
SUMTER         PTSUNNY   87  57  36 SW7       29.92F
FLORENCE       MOSUNNY   83  59  44 S5        29.94F
MYRTLE BEACH   MOSUNNY   75  63  64 SE18      29.98S
N MYRTLE BEACH SUNNY     74  65  73 E10G18    29.96F

$$

GAZ063-065-086>088-099>101-113>116-118-119-134>141-150-292100-
...SOUTHEAST GEORGIA...

CITY           SKY/WX    TMP DP  RH WIND       PRES   REMARKS
SAVANNAH ARPT  MOSUNNY   93  57  29 N5        29.92F HX  91
HUNTER AAF     SUNNY     89  63  41 SE6       29.91F HX  90
FORT STEWART   SUNNY     89  58  34 NE2       29.89F
STATESBORO     SUNNY     94  62  34 W3        29.92F HX  95
SYLVANIA       CLEAR     92  60  34 W6        29.93F HX  91
CLAXTON        FAIR      91  60  35 W5        29.92F HX  90

...CSRA...CENTRAL AND FAR SOUTHEAST GEORGIA...

CITY           SKY/WX    TMP DP  RH WIND       PRES   REMARKS
THOMSON        SUNNY     90  58  34 SW5       29.98F
AUGUSTA-BUSH   SUNNY     90  54  29 E5        29.92F
AUGUSTA-DANIEL SUNNY     92  52  25 CALM      29.94F
SWAINSBORO     FAIR      90  52  27 CALM      29.94F
VIDALIA        MOSUNNY   90  59  35 N6        29.93F
EASTMAN        FAIR      91  56  30 S5        29.95F
HAZLEHURST     FAIR      91  56  30 NE3       29.92F
ALMA           SUNNY     89  57  33 W5        29.93F
WAYCROSS       SUNNY     88  64  44 NE5       29.92F
JESUP          MOCLDY    91  63  38 CALM      29.92F HX  92
BAXLEY         FAIR      91  57  31 NW5       29.92F HX  90
BRUNSWICK      SUNNY     91  59  33 SE9       29.93F HX  90
SAINT SIMONS   SUNNY     83  70  64 SE9       29.93F

$$

SCZ027-028-034-036>038-045-046-048>050-GAZ119-141-292100-
...LAKE AND SUPPLEMENTAL COASTAL OBSERVATIONS...

STATION/POSITION TIME  TEMP    WIND        PRES    WAVE   SWELL
                       AIR SEA DIR/SP/G            HT/PER HT/PER/DIR
                 (UTC) (F)     (DEG/KT/KT) (MB)    (FT/S) (FT/S/D)
WINYAH BAY       1900   76     100/  8     1014.0
LAKE MURRAY      1900   81     210/  7/  8 1013.9S
ACE BASIN NERRS  1900   88     140/  2     1014.0S
FORT PULASKI     2000   83 72  100/  7/  9 1014.0F
SAPELO ISLAND    2000   89     140/  7     1013.0F

$$

ANZ835-935-AMZ111-154-330-350-352-354-370-450-454-472-292100-
...C-MAN AND BUOY OBSERVATIONS...

STATION/POSITION TIME  TEMP    WIND        PRES    WAVE   SWELL
                       AIR SEA DIR/SP/G            HT/PER HT/PER/DIR
                 (UTC) (F)     (DEG/KT/KT) (MB)    (FT/S) (FT/S/D)
BUOY 41004       1950   72 73   60/  8/ 10 1013.8F   2/ 9   2/ 9
BUOY 41008       NOT AVBL
FOLLY BEACH CMAN 2000   76     100/  9/ 11 1014.3F
CAPERS NEARSHORE 2008   74 71  110/  8/ 12 1013.7F
FRIPP NEARSHORE  2008   77 74  180/  8/  8 1013.2F


STATION/POSITION TIME  TEMP    WIND        PRES    WAVE   SWELL
                       AIR SEA DIR/SP/G            HT/PER HT/PER/DIR
                 (UTC) (F)     (DEG/KT/KT) (MB)    (FT/S) (FT/S/D)
5E ST. MARYS GA  1921      75                N/A     1/11
FRYING PAN BUOY  2000   69 70   40/ 12/ 14 1014.4S
BUOY 41025       1950   66 74  350/ 14/ 17 1013.3R   3/ 8   2/ 50/ 8
CAPE LOOKOUT NC  2000   71     290/  9/ 11 1013.7F
BUOY 41002       1950   72 71  210/ 14/ 16 1012.8F   4/ 5   2/ 80/10
BUOY 41010       1920   77 77  210/  8/ 10 1014.7F
ST AUGUSTINE FL  2000   73 71  110/  7/  7 1014.7F


$$




USA.gov is the U.S. government's official web portal to all federal, state and local government web resources and services.